Location: Guferjoch
(46.7462°N, 8.4506°E)
Time: 23:43:34
(UTC+00:00)

Okean 3 - Pass Details

Date: 14 July 2020
Orbit: 576 x 601 km, 82.5° (Epoch: 14 August)

Event Time Altitude Azimuth Distance (km) Brightness Sun altitude
Rises 01:50:17 0° 345° (NNW) 2,805 7.6 -14.9°
Reaches altitude 10° 01:52:32 10° 339° (NNW) 1,903 6.6 -14.6°
Maximum altitude 01:56:32 46° 267° (W) 785 3.8 -14.3°
Enters shadow 01:58:48 23° 205° (SSW) 1,252 4.5 -14.0°
